GFSNE_250_spd_093.txt.gz
Wind_Speed
60 63 65 65 67 69 69 69 61 55 54 55 60 62 63 64 69 69 70 71 75 78 83 85 84 82 83 86 86 88 90 90 90 93 94 92 91 94
61 62 64 67 68 64 66 57 56 58 56 59 60 64 67 67 69 72 74 75 76 80 80 83 85 85 85 87 89 92 93 92 95 96 95 95 97 96
65 66 64 63 62 59 57 57 57 60 59 60 62 66 68 71 72 75 77 79 81 85 85 83 86 87 88 92 95 98 98 97 98 99 99 99 98 99
50 49 47 47 47 53 53 54 56 57 59 61 64 67 70 74 78 80 83 85 88 88 88 88 89 91 92 96 99 103 103 103 102 102 103 102 101 102
38 39 40 44 46 49 51 52 55 56 59 62 64 67 70 74 78 81 86 89 90 90 89 89 93 97 98 100 104 107 107 105 106 106 105 105 105 106
36 35 38 42 45 49 53 55 59 62 65 71 72 76 79 79 81 84 88 91 94 94 92 92 93 95 100 104 108 109 109 109 110 109 109 110 110 110
38 43 46 50 52 56 59 62 66 70 72 76 77 81 85 87 94 96 98 98 98 99 98 99 100 101 106 110 112 113 114 114 113 112 114 112 113 114
51 53 55 57 60 64 68 71 75 78 80 83 86 88 89 92 96 100 104 106 104 105 103 104 107 108 112 116 118 119 117 114 115 116 117 116 117 116
56 60 62 65 68 71 74 77 81 85 88 91 93 95 96 99 103 107 110 111 109 110 113 111 115 116 119 121 123 120 119 119 119 119 118 118 119 118
63 65 68 70 72 74 78 81 85 89 93 95 99 101 102 104 109 113 118 117 114 115 119 119 123 125 127 126 126 123 121 122 122 121 120 121 120 118
71 71 74 76 79 82 84 86 89 93 97 100 103 106 107 111 115 120 123 123 117 120 125 130 129 130 131 129 127 123 121 120 122 123 125 122 119 118
77 79 82 85 87 88 89 92 94 98 101 105 108 111 113 117 122 127 127 123 123 124 132 135 135 137 131 127 123 123 122 122 121 122 122 120 117 111
83 86 87 88 91 94 97 99 100 102 106 110 114 117 120 125 128 128 126 127 129 130 134 139 137 134 132 123 120 122 121 120 119 119 118 113 107 102
89 91 94 95 98 101 105 105 106 110 114 117 120 123 127 131 132 129 129 130 131 134 137 138 135 131 126 123 120 121 115 114 113 110 108 102 95 92
94 94 97 103 103 105 109 110 114 117 120 124 127 131 132 132 129 129 131 133 136 136 135 133 130 127 124 118 111 107 106 103 101 99 98 91 87 79
101 103 105 107 111 112 115 117 119 124 126 129 133 133 132 129 130 132 133 134 131 129 129 128 126 120 111 106 102 98 97 93 93 91 86 81 78 70
108 111 112 113 116 119 121 123 127 130 133 134 131 129 127 130 132 134 131 128 127 124 121 117 112 107 101 96 93 90 85 83 83 81 77 74 70 64
111 115 119 118 122 123 126 131 132 134 132 130 126 128 131 131 129 126 126 124 120 114 108 104 99 94 91 89 84 80 77 73 75 72 70 66 62 58
114 116 117 119 124 128 130 133 129 129 127 127 130 132 130 125 123 122 119 112 107 101 97 92 89 84 81 80 80 71 67 68 65 64 62 59 55 51
112 117 121 124 129 131 128 130 128 127 128 130 129 125 121 121 118 111 106 101 96 92 89 85 81 78 74 72 70 63 60 60 56 55 54 50 46 45
120 123 125 128 129 128 126 124 125 126 128 124 119 119 118 112 105 101 96 92 88 85 82 78 74 70 66 63 60 56 56 52 52 49 47 44 42 40
124 127 125 126 123 122 122 123 125 125 119 116 115 112 107 102 96 93 89 85 82 78 74 70 66 62 59 56 53 51 48 47 44 42 41 39 38 37
124 123 123 122 121 122 122 124 118 115 113 110 105 101 98 93 89 85 82 78 74 70 66 62 59 56 54 51 48 44 42 40 38 36 35 34 34 33

GFSNE_250_spd_099.txt.gz
Wind_Speed
68 70 72 74 76 79 81 83 84 84 85 83 81 80 79 76 69 60 57 57 55 57 60 61 65 68 69 72 74 76 78 81 83 83 85 86 86 87
71 72 76 76 79 81 80 80 81 75 73 77 80 76 67 61 59 55 54 56 60 64 67 70 72 73 75 79 83 84 85 85 89 89 90 90 91 89
74 76 77 79 80 81 84 82 79 79 74 67 61 61 60 58 59 59 61 64 68 71 75 76 79 81 83 84 86 90 93 95 97 98 98 99 98 98
76 79 82 81 75 76 75 75 67 63 59 58 62 61 59 60 63 66 72 76 76 77 79 82 84 86 89 90 93 95 97 99 101 102 100 103 101 102
76 68 65 68 65 57 56 57 58 60 62 62 64 64 66 70 72 73 76 79 81 82 84 87 91 91 94 97 100 103 104 104 103 102 104 107 107 111
60 52 48 49 52 54 56 57 59 61 64 66 69 72 74 75 77 80 82 85 86 89 92 94 96 97 100 100 106 108 109 107 106 108 110 113 119 120
45 47 50 54 58 60 63 66 66 67 69 70 73 77 76 80 82 86 89 91 95 97 100 101 103 104 108 110 109 112 109 107 108 114 119 122 126 130
50 53 56 60 63 67 71 74 77 81 82 84 84 85 89 88 90 92 95 98 103 105 105 107 110 111 114 113 117 114 115 118 120 121 125 131 134 134
55 57 60 62 64 69 72 76 80 84 87 90 91 93 96 98 100 101 103 104 104 106 110 114 117 114 114 120 120 121 122 123 126 131 137 137 130 130
60 63 66 69 72 75 77 81 85 88 91 96 95 99 101 102 103 105 108 111 115 118 117 117 117 118 121 123 125 123 126 131 137 135 134 133 133 131
69 72 73 75 79 84 88 89 92 97 101 103 105 107 109 112 114 117 118 120 120 119 118 117 116 117 118 122 127 130 135 139 136 137 135 133 131 132
74 79 81 85 91 89 88 94 97 101 103 104 106 108 108 107 106 104 104 107 108 110 111 115 117 121 122 128 130 130 133 135 134 132 130 132 131 127
81 85 89 96 92 93 93 93 93 93 93 96 94 91 93 97 99 105 106 108 111 116 118 118 120 123 126 123 123 126 125 125 128 128 127 126 123 120
90 95 97 92 90 90 91 87 90 95 97 95 94 101 109 112 114 113 116 121 123 121 120 124 123 128 128 123 118 119 120 117 117 117 118 115 109 106
98 96 93 92 84 89 87 95 99 104 107 111 114 118 121 125 120 124 129 130 130 132 130 132 131 127 123 117 114 111 108 110 109 103 100 97 94 93
92 92 84 87 94 98 95 100 106 110 115 119 124 125 125 131 132 134 133 133 136 140 137 133 128 122 117 116 111 105 101 98 96 91 87 88 86 83
88 75 84 89 101 109 109 108 112 114 120 122 125 129 131 135 139 137 132 136 140 133 130 126 123 121 117 111 102 98 92 92 87 82 80 79 75 73
77 83 95 98 101 105 108 114 118 120 122 125 128 129 133 141 142 135 135 136 127 127 120 114 113 111 108 107 95 84 85 83 80 75 71 68 64 62
84 90 96 100 103 107 114 117 119 123 129 133 134 137 142 145 135 131 129 126 125 119 117 110 101 97 94 93 92 82 79 76 70 65 62 58 56 55
92 101 103 106 111 117 118 121 126 130 132 135 139 143 141 132 131 128 123 119 116 113 107 100 95 89 84 82 83 79 69 65 61 58 55 52 51 49
100 105 108 111 117 121 126 129 130 134 137 141 143 132 131 127 124 118 114 111 107 102 98 92 86 82 80 77 72 67 63 59 56 52 50 47 45 43
106 108 113 119 119 123 128 132 134 138 142 138 130 129 123 117 112 112 108 104 100 95 88 83 81 80 74 69 65 61 57 53 50 47 44 41 38 36
110 116 119 122 126 129 133 136 140 139 135 132 126 120 111 112 110 105 101 97 90 84 81 81 77 71 67 62 59 53 50 47 45 42 39 35 34 32

GFSNE_250_spd_102.txt.gz
Wind_Speed
63 62 64 65 65 66 68 68 70 72 73 79 81 85 82 79 77 75 73 65 62 60 59 58 60 64 66 72 75 76 78 79 82 85 87 86 89 89
65 66 67 67 68 69 71 71 73 74 78 85 82 78 78 74 68 64 62 62 63 62 63 64 67 71 76 78 80 83 84 85 88 93 95 96 97 98
68 69 69 69 70 70 72 76 79 79 73 71 72 66 62 62 62 62 64 66 67 69 70 76 79 80 83 85 86 88 91 93 96 99 102 102 103 106
66 66 70 70 72 76 78 80 80 76 75 63 58 57 59 62 64 65 68 71 73 76 80 83 84 86 88 91 93 95 98 102 106 106 106 107 111 112
68 75 76 71 73 70 69 59 54 53 53 56 59 63 65 68 71 73 74 78 79 81 84 86 89 92 95 99 101 103 105 109 108 108 111 114 115 116
75 76 73 64 56 49 50 52 55 57 62 65 67 73 71 72 75 79 81 85 88 91 93 95 99 101 102 104 107 108 109 110 113 114 115 117 116 115
39 40 42 46 50 54 55 58 61 63 66 69 69 73 74 77 82 84 87 91 93 96 99 101 101 104 106 108 107 109 111 112 113 114 115 116 116 116
44 48 50 53 56 59 62 63 65 71 72 77 75 81 85 88 94 98 100 101 103 106 104 106 104 101 103 106 108 107 105 109 111 114 115 115 116 119
49 52 54 57 61 63 67 69 71 75 78 81 85 88 93 99 100 99 103 106 109 107 104 99 95 90 95 99 101 103 104 106 107 110 112 115 120 126
58 60 62 65 69 72 73 75 77 81 85 89 92 95 101 106 107 105 107 106 103 99 92 89 91 99 101 104 104 108 113 115 116 118 121 123 126 129
65 67 70 71 72 75 77 79 86 87 88 92 99 105 107 109 105 97 94 93 91 91 95 96 98 100 103 108 110 121 126 130 127 130 129 127 127 126
71 73 75 79 81 84 86 89 93 93 97 102 106 106 106 104 100 105 106 111 109 110 112 109 111 115 116 122 128 137 140 135 130 133 132 127 124 121
75 76 79 83 86 88 95 96 98 102 106 105 106 109 105 105 110 114 117 117 114 117 118 117 116 120 124 121 128 134 132 128 127 122 120 118 114 116
79 82 83 89 91 93 99 101 105 103 101 106 97 109 111 114 120 117 118 121 121 125 125 124 127 131 134 139 140 137 128 120 114 113 111 108 107 105
88 89 91 98 98 98 90 96 102 107 103 104 102 104 112 118 117 118 121 127 125 124 125 129 134 137 143 138 127 120 111 111 112 106 101 98 98 94
89 95 95 93 91 85 87 99 100 109 113 106 100 105 109 117 119 121 127 129 128 133 137 138 139 140 134 126 116 109 104 102 97 94 89 89 84 82
97 99 99 91 90 92 93 94 106 110 109 109 115 116 116 123 126 127 131 135 137 138 141 143 142 136 128 121 110 102 97 93 86 81 81 83 79 77
107 111 109 94 101 105 96 101 104 110 112 115 119 118 122 125 128 135 138 141 141 145 143 139 134 126 120 115 102 85 89 82 80 79 76 73 69 65
106 107 94 91 96 97 96 102 110 116 119 121 121 120 124 130 134 138 140 138 141 139 132 126 121 110 102 96 94 79 81 82 78 73 68 64 61 59
98 89 87 92 103 106 106 111 114 116 118 117 121 127 132 136 137 138 138 133 134 132 124 114 105 98 91 84 83 85 80 76 70 65 62 58 54 51
83 81 86 102 108 109 113 119 125 122 119 124 130 135 137 136 140 132 137 132 129 121 105 101 94 90 84 81 80 78 74 68 64 60 55 52 49 46
76 80 90 97 105 116 124 128 129 129 128 130 133 133 138 137 137 137 128 124 117 102 96 93 89 85 80 79 78 72 67 62 58 54 50 47 44 40
84 94 102 107 115 122 129 130 128 132 133 132 135 138 135 138 132 124 119 105 101 95 92 90 82 79 78 76 70 65 62 57 53 49 45 42 39 36

GFSNE_250_spd_108.txt.gz
Wind_Speed
54 56 60 61 56 58 60 60 62 63 64 68 70 71 71 71 73 71 70 74 68 62 56 56 56 59 61 63 64 65 66 70 73 75 80 85 88 85
59 57 61 61 63 63 62 63 64 65 66 67 69 69 68 70 71 71 68 61 57 55 58 60 64 66 68 69 70 73 78 79 82 85 86 90 89 85
59 61 63 65 64 66 66 69 70 69 72 71 71 73 73 71 66 63 60 57 59 61 65 68 69 71 71 76 79 82 84 87 89 92 96 97 89 84
70 69 69 66 66 66 64 65 71 72 66 69 74 73 68 70 68 60 62 63 65 64 66 69 74 79 83 85 86 89 91 93 96 104 94 97 96 86
65 67 69 69 68 66 66 66 65 67 69 65 65 63 59 59 61 65 68 69 72 73 76 79 81 87 88 88 91 95 98 104 105 102 100 103 100 91
61 62 63 65 63 61 61 60 63 63 60 55 53 54 60 64 66 69 72 75 79 83 84 86 88 91 92 95 96 100 105 107 107 108 106 109 107 99
64 62 61 63 64 57 52 49 50 52 53 56 60 63 67 70 73 75 77 81 84 84 84 87 92 95 96 98 105 112 106 106 111 111 115 111 109 110
36 37 38 40 43 46 49 53 56 59 61 65 68 72 74 75 77 80 81 84 84 85 91 93 96 101 105 107 112 108 107 110 113 118 114 114 116 113
39 42 45 49 52 54 57 59 62 66 69 70 73 76 76 77 79 82 86 87 88 90 91 100 107 112 115 113 108 111 112 113 114 117 123 125 121 122
49 53 55 56 57 59 63 65 68 70 71 72 74 75 79 82 83 87 92 94 97 99 102 112 115 116 113 118 119 122 118 118 123 127 131 131 128 124
52 52 54 57 61 64 63 64 68 71 71 71 76 82 85 83 82 87 86 87 95 101 108 113 118 115 110 118 128 131 131 128 133 137 139 135 133 131
56 59 59 60 61 63 67 70 72 73 73 73 83 84 89 89 95 94 98 95 101 109 116 117 121 121 118 119 125 134 135 137 137 139 136 136 134 131
63 64 65 67 67 70 74 74 77 78 78 82 86 91 90 96 102 101 101 102 109 116 118 126 129 131 134 129 129 132 136 136 136 134 130 130 132 130
67 67 69 69 70 77 79 81 82 81 83 91 93 93 92 102 108 109 111 108 119 121 129 135 138 140 139 132 130 129 131 132 129 127 127 129 125 122
58 68 72 75 80 81 77 85 86 84 92 95 97 98 100 106 112 114 116 121 123 130 136 143 146 145 140 130 122 125 124 128 131 132 130 125 115 108
68 74 79 88 87 89 88 89 95 99 97 99 103 104 113 117 118 121 125 130 134 139 145 148 141 134 135 128 123 125 133 127 123 116 113 106 102 96
81 92 90 91 93 96 96 97 105 105 104 107 112 116 118 118 122 124 132 135 138 144 145 141 136 132 130 128 124 127 123 116 112 106 100 98 92 88
90 91 89 89 93 98 104 107 106 110 114 117 118 121 123 126 130 135 138 138 141 138 131 129 127 130 135 135 121 120 118 112 106 101 97 91 84 79
97 98 103 106 109 111 111 112 116 117 119 119 120 125 130 137 141 139 137 136 132 127 124 125 129 127 126 119 112 109 104 101 96 90 87 81 76 76
102 104 104 104 107 109 111 113 115 119 122 126 132 136 134 134 134 130 126 126 123 119 124 128 122 118 113 109 102 100 96 92 84 80 76 74 73 68
103 104 108 113 118 122 122 122 125 127 128 129 132 130 128 121 118 117 118 120 121 128 124 119 114 109 106 101 97 93 87 83 77 72 71 71 68 62
107 109 113 117 123 126 131 132 127 122 119 117 115 113 110 108 109 113 119 121 121 119 115 110 104 104 99 94 90 85 80 75 71 70 69 65 60 57
98 100 103 106 108 110 113 111 110 110 109 108 105 103 104 109 112 113 115 113 112 110 106 103 99 96 91 87 84 80 75 71 68 67 65 59 55 52

GFSNE_250_spd_114.txt.gz
Wind_Speed
38 43 46 50 51 52 54 54 58 56 58 63 60 61 64 65 66 65 66 67 68 71 75 71 67 66 68 63 55 57 59 63 68 69 70 72 74 73
45 47 50 53 57 62 60 62 63 63 61 60 62 66 68 67 66 66 68 72 72 73 70 68 65 66 61 59 59 63 66 69 71 74 75 74 75 77
56 52 48 49 50 52 54 51 53 56 63 68 70 71 68 70 71 72 74 72 72 68 66 66 62 59 60 63 66 69 73 76 74 76 79 77 74 72
66 65 63 56 49 54 57 57 59 64 67 73 74 73 75 74 75 79 75 77 72 65 64 61 63 65 69 72 75 78 80 72 74 75 76 78 81 82
67 67 67 64 65 65 66 69 73 76 78 80 77 78 78 79 80 84 79 69 66 66 65 67 71 74 76 78 79 79 78 79 85 81 78 81 84 87
65 69 70 72 74 75 78 78 78 76 76 78 80 85 85 82 76 73 70 68 67 67 71 73 76 76 79 82 79 77 81 83 87 88 90 93 96 95
65 68 71 74 77 78 81 80 80 77 78 79 79 80 74 69 68 67 68 69 72 73 76 79 79 81 81 84 84 84 88 84 88 93 99 103 105 107
66 70 72 72 70 68 68 69 72 71 71 71 70 67 64 64 67 70 73 75 79 81 81 82 84 85 87 89 89 91 94 93 95 101 106 108 114 115
63 65 66 67 70 74 76 74 70 68 64 61 62 65 68 69 70 72 75 78 82 86 88 90 91 90 92 94 95 98 99 99 99 103 106 114 119 120
51 52 53 54 55 57 60 62 63 64 66 67 69 70 73 74 74 78 79 82 86 89 90 89 89 92 94 94 99 102 103 108 109 110 115 121 124 128
56 59 58 56 58 61 63 63 65 66 68 69 71 70 72 76 80 83 85 88 88 87 91 93 94 99 102 102 107 108 110 113 115 120 123 128 131 140
56 57 58 58 59 62 67 69 73 74 73 73 76 80 82 85 86 88 87 90 89 89 93 99 100 105 107 110 110 116 117 120 125 131 135 139 142 148
63 64 65 64 67 66 67 68 71 74 78 81 85 86 87 89 90 95 95 94 94 96 99 101 105 109 110 114 119 119 124 129 133 140 144 147 148 149
63 63 64 67 68 70 71 75 79 82 82 83 85 86 88 90 95 98 100 101 100 101 104 105 109 115 116 120 122 126 131 139 140 142 145 149 140 137
68 70 73 75 77 79 83 84 89 88 84 82 84 87 89 94 98 98 99 101 105 108 111 115 116 119 121 123 129 136 138 140 141 142 137 136 137 134
76 80 79 80 81 84 88 89 87 84 88 88 87 90 96 98 98 99 103 109 110 109 117 122 123 127 130 132 137 138 140 141 133 134 132 132 129 125
83 87 92 90 89 91 91 89 86 87 90 93 97 99 101 105 106 107 109 113 116 118 121 125 128 131 133 135 136 135 130 129 128 131 128 125 121 117
87 88 94 95 96 98 99 99 96 96 100 104 108 106 103 104 108 112 116 117 117 120 125 127 131 131 132 131 127 127 127 127 127 125 121 116 112 108
92 93 95 96 101 101 97 91 91 93 97 104 107 110 110 112 114 114 118 120 125 126 128 129 128 125 125 123 123 123 123 123 120 117 111 108 103 95
98 98 100 103 104 99 100 99 99 101 105 107 107 110 114 115 117 117 123 126 125 125 122 120 121 121 120 119 119 120 118 115 110 107 104 97 92 89
102 105 108 108 106 105 104 104 104 105 107 108 112 112 113 116 116 117 118 115 115 114 112 113 113 114 113 115 114 113 108 106 102 101 93 90 88 84
103 105 106 106 105 103 104 105 105 106 106 108 107 109 109 109 108 109 110 109 108 108 108 108 109 110 110 108 106 104 102 101 98 92 89 87 83 79
102 101 101 100 98 98 98 99 100 101 102 103 103 104 103 101 101 103 104 104 103 105 106 105 105 103 102 103 101 99 98 95 92 89 86 82 79 74

GFSNE_250_spd_117.txt.gz
Wind_Speed
48 43 41 42 40 44 40 40 45 45 49 51 52 55 57 58 60 64 64 64 66 71 73 71 75 78 77 78 79 70 63 56 60 61 65 69 72 72
48 48 47 48 51 52 54 46 47 54 57 61 64 65 66 67 68 65 66 71 73 71 74 78 81 81 83 84 74 64 58 61 66 72 74 74 74 71
49 47 54 51 47 43 51 56 59 57 59 67 67 69 73 76 65 68 71 75 78 79 81 82 82 85 87 74 65 62 67 73 75 80 76 76 80 78
51 56 50 54 55 52 48 51 57 57 59 60 60 62 65 62 69 75 83 81 80 82 83 87 86 81 70 66 70 73 76 79 83 82 83 83 84 82
51 54 59 57 58 65 65 59 55 57 58 62 65 67 69 72 82 82 84 85 86 88 87 84 77 70 70 73 75 79 82 84 86 87 88 89 89 90
60 61 63 66 68 69 70 73 72 71 65 67 71 76 81 85 86 86 87 86 84 80 73 71 71 73 76 79 81 83 85 87 86 87 88 89 90 90
59 63 65 65 69 72 70 74 76 76 77 79 83 86 87 86 88 85 82 82 75 72 75 74 78 78 77 81 85 86 87 87 87 92 93 93 94 98
57 59 62 64 65 67 69 71 73 74 76 79 84 88 82 79 79 76 80 83 76 77 80 82 83 83 84 87 87 89 90 87 86 90 97 99 102 107
60 63 66 67 70 73 75 74 76 78 78 78 79 80 79 77 75 82 77 79 81 82 83 83 83 88 90 93 93 94 94 93 94 99 103 104 109 114
57 54 56 61 66 71 71 69 67 70 72 73 73 71 72 74 74 75 77 80 82 85 88 92 94 95 94 95 96 97 98 100 102 105 108 112 115 118
49 50 52 53 54 57 59 60 62 65 69 71 69 68 68 69 71 72 75 79 87 87 90 93 95 97 94 97 101 104 104 106 108 112 117 116 119 122
57 58 58 58 61 63 65 67 68 68 70 72 70 73 73 75 75 78 84 89 92 94 95 94 93 97 100 104 109 110 108 111 114 119 119 119 126 130
58 60 62 64 68 69 70 72 74 75 76 76 78 81 81 83 85 88 92 96 96 99 95 97 101 103 105 109 111 110 113 117 121 121 122 135 136 137
66 67 69 69 70 71 71 73 73 75 78 79 82 83 86 89 90 95 101 106 102 98 102 100 100 106 108 111 114 118 120 122 126 132 135 137 137 135
66 67 69 72 71 71 73 77 81 83 83 84 84 86 88 91 97 100 98 104 104 103 100 106 110 112 112 116 118 120 126 128 130 134 135 136 134 131
73 75 78 78 78 77 80 85 85 85 89 89 89 91 95 97 96 99 104 107 105 109 114 119 120 121 123 122 121 123 127 132 134 134 132 132 129 126
77 76 77 76 80 83 85 88 89 94 97 98 99 99 102 105 103 105 110 107 107 107 110 115 117 121 121 124 126 129 132 134 131 130 128 126 124 122
79 84 80 78 83 91 91 94 95 97 99 102 106 109 111 111 112 114 114 111 111 113 115 117 120 122 123 126 130 131 128 127 126 123 123 121 119 114
83 85 87 87 92 95 97 99 100 102 103 106 109 113 115 119 121 120 118 118 116 116 118 120 120 121 125 124 123 123 123 121 121 119 117 113 108 106
92 95 96 99 102 103 105 107 111 114 114 115 116 118 118 117 116 117 118 115 114 114 116 116 117 116 117 118 119 118 116 116 115 113 109 104 103 103
99 101 103 105 109 110 111 110 111 111 113 114 114 116 116 118 116 114 113 112 111 111 110 110 110 112 113 113 112 111 111 109 106 103 101 100 99 96
104 108 108 109 109 108 110 113 112 113 113 113 113 112 111 109 108 106 106 106 105 105 106 106 104 106 106 106 107 106 104 102 99 99 97 96 92 91
105 107 107 108 107 108 109 111 113 110 107 106 106 104 103 102 101 103 102 101 101 101 101 101 102 103 103 102 102 100 97 96 96 95 94 91 88 85

GFSNE_250_spd_120.txt.gz
Wind_Speed
43 48 54 52 52 46 44 40 41 41 46 48 43 45 47 46 49 51 54 58 62 64 67 70 72 72 74 81 78 79 80 81 82 74 70 61 65 68
36 46 49 52 52 49 49 43 45 45 47 52 46 52 48 52 50 52 57 59 64 70 72 73 69 77 83 81 79 82 84 77 73 65 66 71 72 73
36 44 49 50 50 50 51 51 55 56 54 54 50 54 55 58 58 60 66 73 72 67 68 70 76 83 82 81 83 82 81 72 65 71 74 77 77 77
39 35 43 46 51 58 56 57 51 51 50 47 51 55 60 61 64 67 69 62 66 72 73 82 85 80 80 81 78 73 68 74 73 78 80 78 80 82
41 41 39 46 55 59 57 54 53 54 57 51 56 63 64 62 64 64 66 69 73 77 84 80 81 81 77 75 73 74 75 77 82 81 83 85 88 89
43 45 45 45 51 55 55 55 57 58 60 63 65 64 64 66 68 70 70 74 80 83 84 83 74 71 67 72 75 78 81 83 83 87 90 91 92 92
45 47 49 51 55 57 58 61 64 64 68 70 71 73 75 75 77 79 80 82 84 86 77 72 73 73 73 75 78 77 81 84 88 93 94 94 93 94
44 44 50 55 57 59 62 64 63 65 66 70 74 75 74 76 81 84 83 82 75 71 73 75 76 75 74 76 79 82 89 91 96 92 93 94 94 96
47 44 47 50 53 57 59 62 64 65 68 71 73 76 76 78 78 79 73 72 75 76 77 76 77 77 78 84 87 91 94 96 102 100 99 99 100 105
56 55 55 58 60 61 64 69 71 72 71 72 71 72 73 71 69 70 73 76 78 78 80 81 82 84 85 91 93 97 100 104 106 106 106 106 107 111
58 59 61 63 62 62 62 64 66 67 68 68 68 67 69 71 74 76 76 79 82 84 86 87 89 90 95 99 100 101 106 107 109 109 110 111 113 121
47 50 53 54 59 62 62 60 60 62 64 66 68 70 71 74 77 80 81 83 84 85 87 90 93 98 102 104 107 110 113 114 113 113 116 122 125 126
51 52 54 57 59 62 63 64 65 65 68 72 76 76 77 78 79 81 85 89 91 94 95 99 100 101 105 106 108 111 114 114 116 116 118 120 123 125
53 55 57 61 63 65 65 68 71 74 75 75 77 80 83 85 90 88 89 91 92 96 93 96 101 104 107 112 114 116 121 121 120 122 123 123 126 128
60 62 65 67 69 72 72 70 72 76 79 81 85 86 86 87 88 92 94 97 97 99 103 104 105 109 113 119 121 119 123 123 125 125 127 127 130 131
62 67 70 71 70 72 76 78 81 84 85 85 85 86 89 92 94 96 101 104 106 109 110 113 116 122 123 123 125 124 126 128 127 127 127 127 127 126
66 63 69 72 73 78 79 81 82 84 86 88 89 91 94 96 99 102 105 106 109 113 118 121 123 126 127 127 127 127 125 126 124 124 124 123 123 123
68 72 74 77 70 75 82 82 83 86 89 93 95 94 96 101 105 107 110 114 119 122 124 125 127 128 128 126 125 124 123 123 121 120 120 120 120 119
83 82 78 77 77 78 84 89 90 92 95 97 100 102 104 107 113 117 119 122 125 127 125 129 127 127 127 125 122 121 119 118 118 117 116 116 115 112
90 90 89 88 86 88 89 94 98 101 105 108 111 114 116 118 119 122 124 124 124 123 122 124 124 121 120 118 117 114 114 113 112 112 112 109 106 103
90 90 94 93 97 101 103 103 107 110 111 112 113 115 116 120 122 122 124 120 120 120 118 117 117 115 114 112 111 111 110 110 108 107 104 102 98 95
95 96 98 102 106 108 112 112 113 113 114 115 116 119 121 122 118 117 119 120 116 115 113 111 110 109 108 107 108 108 107 104 102 98 94 92 92 94
100 100 104 108 109 109 114 111 116 115 120 118 116 117 119 115 116 115 114 111 109 108 108 107 106 106 105 104 102 99 97 93 91 90 89 90 92 92

GFSNE_250_spd_123.txt.gz
Wind_Speed
38 37 32 38 49 55 52 47 43 40 43 36 40 37 41 43 46 47 44 42 43 49 56 56 58 64 72 72 74 70 67 78 80 77 73 70 69 63
37 40 37 38 43 54 56 52 51 45 41 42 43 43 42 38 45 51 54 49 51 55 59 62 67 70 73 75 69 72 80 81 79 72 69 65 67 67
40 40 37 36 35 49 59 54 50 50 46 46 44 50 48 47 52 54 57 60 58 60 64 69 71 71 70 69 75 79 82 82 71 67 69 69 67 65
45 35 35 32 35 41 53 55 53 52 56 53 50 50 51 51 57 61 65 61 59 65 68 70 71 70 72 77 80 82 77 68 71 73 72 74 69 70
44 32 31 33 34 33 45 53 57 57 57 56 55 57 58 58 60 57 57 60 63 68 69 68 71 74 79 83 86 78 73 76 75 74 73 75 77 80
45 41 36 36 36 36 36 43 54 57 57 57 58 60 59 58 60 62 63 63 61 64 67 69 76 82 87 80 74 75 77 78 80 79 80 83 86 90
52 53 48 41 38 40 42 45 48 49 53 56 60 61 60 61 62 65 65 65 68 73 78 80 81 83 77 73 77 79 80 83 84 85 88 92 94 96
50 52 49 40 39 42 46 50 51 51 52 55 59 62 65 69 68 66 67 72 76 80 84 85 80 76 76 78 80 82 84 87 90 92 92 96 101 102
42 49 49 43 41 45 52 54 50 52 56 57 60 62 63 65 68 72 75 78 81 80 77 74 75 78 80 82 85 87 88 90 93 98 101 102 103 107
44 47 45 45 46 47 51 53 53 54 56 59 62 65 68 72 76 77 77 74 72 72 73 77 79 82 85 88 88 88 89 92 97 99 101 104 107 111
46 49 55 52 51 53 56 55 56 57 59 61 65 70 74 75 73 71 70 72 73 75 80 84 84 87 88 90 91 91 92 98 102 105 107 114 116 118
45 51 55 58 60 61 63 65 67 70 72 72 72 69 67 68 71 72 72 76 80 81 83 85 87 90 92 93 95 100 102 104 108 112 116 119 122 125
42 43 45 48 51 53 56 59 61 61 62 63 65 67 68 71 73 75 78 79 82 85 88 91 93 95 97 99 101 104 108 112 116 120 123 125 130 128
46 49 49 49 49 51 53 56 59 61 63 65 67 70 74 77 79 81 81 84 87 88 92 95 97 98 102 105 108 112 118 121 123 128 130 132 129 132
50 53 53 56 58 60 59 60 63 67 69 71 73 76 79 81 81 83 87 89 90 93 95 99 101 104 107 109 114 119 123 126 128 132 135 133 132 130
55 57 59 59 60 60 62 64 68 72 76 78 80 83 84 86 88 89 90 93 95 95 98 100 104 109 117 121 123 125 126 131 134 134 136 133 132 131
62 66 66 67 69 69 71 75 76 78 82 83 84 84 87 87 87 88 91 94 97 97 102 108 112 118 122 123 126 129 132 136 135 131 131 132 129 125
66 67 66 68 73 74 73 74 76 79 82 84 88 91 91 88 88 94 97 92 103 108 113 117 120 123 124 127 131 132 134 133 131 130 129 125 120 118
65 68 65 69 72 76 81 83 83 87 90 92 95 92 88 93 98 99 104 109 114 121 121 118 121 124 129 133 129 131 130 129 128 124 120 118 115 112
73 68 72 73 77 83 86 90 90 91 90 88 90 96 101 104 106 108 112 114 115 118 120 128 130 130 132 127 128 126 126 123 119 116 114 111 109 106
83 79 81 81 83 87 87 89 89 92 98 100 102 106 108 107 110 113 115 118 116 125 128 123 133 133 128 125 124 122 116 115 112 108 106 104 100 96
86 84 86 88 88 86 91 94 96 99 105 110 110 112 115 115 117 120 121 123 135 125 131 127 126 122 121 119 115 113 110 108 106 102 96 97 97 97
91 94 93 91 88 90 99 102 103 107 110 112 115 117 123 121 126 128 131 140 134 132 125 123 120 118 116 112 109 107 104 102 97 93 93 96 93 89

GFSNE_250_spd_129.txt.gz
Wind_Speed
38 36 35 40 41 38 34 40 48 48 39 46 51 49 47 46 42 42 40 41 41 41 41 45 45 45 50 48 50 52 55 56 59 61 61 67 73 72
39 38 36 40 43 38 36 38 44 47 49 42 50 51 50 50 49 50 46 47 47 45 45 46 44 47 50 53 54 55 58 57 59 63 66 71 72 75
41 40 40 41 44 41 37 35 43 46 48 45 44 49 51 54 56 56 54 54 51 50 49 46 47 48 52 55 57 59 59 60 64 71 72 72 76 73
41 42 42 42 44 42 39 35 44 46 44 44 43 44 46 49 53 58 59 59 58 58 54 54 54 56 60 61 63 63 64 68 72 72 73 74 77 76
42 44 44 44 44 41 44 37 45 46 45 48 50 47 47 50 54 56 57 59 62 60 58 58 59 63 64 66 66 69 70 71 71 76 77 79 80 76
43 45 44 44 43 46 41 41 44 48 45 48 49 54 46 48 53 57 59 61 61 61 61 61 61 66 67 68 68 68 72 74 77 80 80 80 78 78
43 43 42 42 45 44 45 44 44 50 41 40 45 46 46 49 53 56 60 60 58 61 58 64 68 68 66 66 69 74 76 78 81 80 81 79 80 84
43 39 40 38 42 47 50 43 42 48 45 43 42 42 48 54 55 59 64 61 56 59 62 63 64 65 67 71 73 76 79 79 81 82 80 82 86 89
42 37 38 40 39 43 45 42 43 43 39 43 44 43 50 54 58 61 61 61 61 62 60 61 65 67 71 73 77 76 79 83 81 81 84 88 88 91
40 37 38 36 36 35 37 42 47 46 44 41 46 49 51 55 58 64 59 56 59 60 63 66 70 72 77 75 76 81 83 82 84 87 88 89 92 95
40 39 41 38 37 39 38 41 44 45 46 50 52 53 55 57 57 57 59 60 60 64 71 74 77 79 75 77 82 82 83 84 87 88 89 93 97 92
42 42 43 44 42 43 45 45 46 49 51 54 54 56 55 57 60 62 62 63 68 72 76 78 76 77 80 81 82 83 84 87 91 91 94 97 100 98
46 49 51 52 44 46 47 51 52 51 52 55 56 57 59 61 63 66 69 72 75 78 77 76 79 82 82 81 84 85 89 93 94 97 101 102 102 102
49 51 54 52 51 46 50 50 54 56 58 61 61 62 62 64 67 71 74 75 77 78 81 81 80 80 81 85 88 92 94 96 100 103 103 104 102 109
50 52 53 53 52 56 54 55 54 57 58 59 61 63 65 65 67 71 75 77 78 79 79 80 82 83 88 88 90 93 99 103 105 103 103 101 109 114
50 51 54 51 52 57 60 60 60 62 63 63 63 65 67 69 71 73 75 77 76 75 80 85 86 88 89 92 93 95 102 100 101 106 107 109 118 123
51 53 55 54 56 58 57 60 62 65 67 68 69 68 67 70 71 72 75 79 79 81 82 85 86 89 92 96 101 100 101 105 108 110 114 116 121 129
57 56 57 63 64 63 65 64 64 65 66 67 68 69 71 74 76 78 78 79 82 84 86 87 90 93 97 101 103 105 109 115 115 117 119 121 129 133
59 60 64 66 63 65 66 68 67 68 70 69 71 72 76 77 81 82 84 85 88 88 91 94 100 99 101 104 105 110 114 117 115 115 119 126 130 138
66 64 66 72 67 65 69 69 70 72 72 71 73 76 79 81 85 86 89 92 92 95 97 99 96 98 103 109 114 119 120 123 119 124 129 133 140 143
71 73 71 71 72 69 72 76 76 76 76 73 75 79 78 78 82 87 90 94 94 95 95 97 103 110 115 116 121 121 127 131 130 131 133 140 144 148
78 77 77 77 80 81 85 87 85 84 86 84 84 85 88 87 86 94 98 99 101 102 104 106 110 114 118 123 125 129 130 133 136 138 143 147 152 146
79 83 84 85 87 88 87 91 93 92 93 90 91 94 94 97 100 104 109 108 109 110 115 119 120 123 124 127 132 134 136 141 144 146 151 148 137 130

GFSNE_250_spd_132.txt.gz
Wind_Speed
47 44 43 42 39 37 37 43 45 38 35 41 43 41 40 42 44 45 45 45 47 45 42 38 38 40 40 40 39 42 46 47 49 53 56 56 58 57
42 43 44 43 39 38 36 43 46 42 34 38 44 45 43 44 43 46 47 47 48 49 48 46 46 44 46 47 46 50 49 52 57 59 61 62 59 61
44 44 46 46 41 40 37 40 49 45 41 37 43 43 47 47 45 42 43 46 49 48 52 50 52 53 53 54 55 55 57 60 63 64 65 64 65 67
47 47 47 46 42 41 39 40 49 49 45 40 42 47 50 49 45 41 44 49 48 49 52 53 55 56 55 55 59 59 61 65 64 66 66 67 67 71
51 50 49 51 47 44 42 41 49 51 46 42 43 49 49 49 47 44 44 47 48 49 53 55 57 60 62 62 61 59 63 64 67 70 68 68 71 74
53 53 50 53 49 47 46 45 49 52 48 43 44 49 50 45 45 48 49 51 50 51 54 55 55 57 58 60 61 63 65 67 67 66 68 72 75 77
55 55 54 53 49 49 47 46 47 52 49 48 44 47 48 47 47 51 55 51 52 54 57 59 57 61 63 60 63 65 67 65 65 69 72 75 76 75
58 57 60 58 51 49 47 44 46 50 52 46 48 44 51 47 47 50 52 53 55 60 64 63 61 60 61 64 67 70 68 66 70 73 76 75 75 83
59 57 61 55 48 45 44 42 45 49 49 48 46 46 49 44 46 48 53 55 59 64 65 60 58 59 63 66 67 69 69 69 72 77 75 78 84 86
62 59 56 49 45 44 44 43 45 43 47 49 48 45 50 52 52 53 56 58 59 66 66 59 57 58 62 68 71 73 71 74 79 79 80 84 85 89
62 57 50 49 45 43 45 44 45 43 41 44 40 44 49 51 50 49 54 60 65 69 68 63 60 63 68 72 72 74 77 80 82 81 86 91 92 94
64 56 52 52 46 45 47 46 43 42 41 41 42 46 49 50 51 54 62 66 71 68 62 63 66 69 71 72 76 79 82 83 85 88 91 95 95 96
55 54 51 55 48 44 51 50 47 45 46 47 47 50 53 56 60 61 63 64 65 65 67 71 71 73 76 78 81 84 83 87 92 94 94 97 100 99
69 63 58 58 54 48 51 55 51 49 53 55 56 59 61 61 63 65 68 69 71 71 72 73 74 76 80 82 83 86 88 91 92 95 97 101 103 102
57 59 61 59 56 53 55 60 56 55 51 61 61 63 65 68 71 74 73 73 71 71 73 75 77 79 83 86 91 91 92 95 95 96 101 102 104 109
53 54 56 60 59 57 58 61 58 59 60 56 61 66 68 69 69 71 73 75 76 75 75 76 80 85 87 87 88 90 93 95 97 100 101 104 108 110
56 56 58 58 59 59 59 61 58 60 63 63 65 63 66 71 73 73 73 75 76 77 78 79 82 84 88 89 94 94 97 101 102 105 106 108 109 108
60 60 60 59 61 59 59 56 56 57 60 65 66 70 74 74 74 75 76 77 77 79 82 84 85 89 91 93 96 99 102 104 106 111 107 108 112 114
63 66 64 65 63 60 63 59 60 63 67 69 71 71 73 73 74 76 77 78 78 82 85 88 90 93 95 98 100 101 103 104 106 108 110 113 117 122
65 70 71 67 67 66 68 69 69 70 70 72 76 80 80 80 81 83 83 83 87 88 89 90 93 96 100 103 104 109 107 108 112 113 116 119 123 127
69 74 76 74 70 70 69 74 78 79 76 78 79 80 83 88 89 90 87 87 89 92 94 98 100 105 106 104 103 109 112 113 118 120 122 126 129 132
70 73 78 78 77 78 78 78 81 83 83 82 78 81 85 85 86 89 91 94 97 98 98 103 105 106 107 108 111 113 117 123 124 125 127 132 135 142
71 69 70 75 81 83 84 84 84 88 89 90 88 89 89 92 93 97 97 99 101 103 106 107 108 109 111 113 117 120 123 125 127 129 134 139 140 140

GFSNE_250_spd_135.txt.gz
Wind_Speed
39 40 43 43 46 40 42 42 39 41 39 40 48 46 40 43 48 40 40 39 39 46 48 47 43 43 40 41 40 40 41 40 42 45 48 52 53 56
39 42 44 42 42 39 40 43 40 41 38 40 46 48 43 43 44 49 41 38 40 41 45 49 50 46 49 46 45 47 47 50 51 53 55 58 60 63
40 44 44 43 45 44 44 43 41 42 42 38 47 48 46 44 51 52 45 45 47 46 46 46 51 50 51 50 51 52 53 54 55 56 59 61 63 66
46 51 53 48 47 49 49 47 43 45 44 42 44 53 51 46 46 49 50 48 48 47 46 47 48 50 50 51 54 57 58 57 59 61 63 63 66 68
48 53 55 53 54 52 49 48 48 46 46 45 44 51 54 54 50 49 50 54 51 51 51 50 50 50 50 50 52 55 58 59 59 60 64 65 67 70
50 52 53 52 52 52 50 50 52 50 47 49 45 50 56 54 53 49 54 56 52 53 53 51 53 51 52 53 55 58 58 60 62 61 64 67 71 73
52 56 58 56 57 57 59 61 60 57 53 51 48 51 56 56 54 50 51 52 52 50 51 54 55 56 56 57 59 59 58 60 62 64 67 70 75 76
58 60 61 60 62 65 66 69 61 59 54 52 50 49 55 56 56 53 51 52 52 53 57 62 60 60 59 63 62 60 60 63 66 69 71 74 73 76
62 65 67 67 65 61 60 61 63 59 51 50 45 45 51 57 55 57 52 52 53 52 57 61 59 63 63 64 61 62 64 66 65 67 71 74 77 78
69 72 71 66 65 64 65 65 62 57 51 49 44 44 49 52 58 53 57 53 59 59 59 57 60 67 69 70 64 62 65 69 71 74 77 79 78 78
77 76 74 76 71 73 74 66 62 55 51 46 43 45 47 52 51 56 54 59 59 59 61 62 64 67 73 73 66 64 70 73 75 78 80 80 81 84
79 79 82 75 77 70 69 67 66 56 52 47 45 46 48 47 50 46 49 50 59 62 66 63 59 67 72 72 76 77 78 77 80 80 81 83 86 90
83 86 82 79 76 75 68 62 55 53 52 50 49 47 47 46 44 46 50 51 52 59 60 61 65 69 73 74 76 79 80 81 81 81 85 91 92 95
79 79 76 75 74 64 64 65 54 52 53 53 53 49 49 51 55 53 55 56 58 60 63 67 70 73 76 79 80 82 82 82 83 86 91 95 96 98
73 73 72 71 64 66 69 62 63 63 55 57 54 59 54 55 59 62 63 61 62 65 71 72 75 79 80 82 84 84 84 85 85 87 94 96 98 102
74 70 71 70 68 70 69 58 56 59 62 59 56 58 62 59 60 62 68 71 73 75 76 78 80 82 84 85 84 85 88 87 91 95 98 101 103 107
76 75 74 71 72 68 65 59 57 55 59 61 62 62 65 69 69 64 62 67 75 79 82 84 87 88 88 88 88 89 91 95 99 101 102 106 109 112
67 72 72 76 71 69 67 59 61 57 57 62 64 65 64 68 73 72 74 71 72 77 81 83 85 86 88 91 94 97 98 98 100 103 106 107 113 114
72 68 62 64 67 64 66 65 64 64 61 62 65 65 65 70 72 74 75 75 76 79 82 86 89 92 95 96 97 97 98 100 102 106 109 109 109 112
73 73 69 69 66 68 67 68 68 68 70 66 68 69 68 71 73 75 75 77 79 83 84 85 88 92 93 97 99 101 104 106 107 106 110 113 116 117
80 79 81 76 74 72 67 66 66 72 73 75 75 74 73 74 79 80 81 83 87 88 90 89 91 94 98 99 101 102 104 108 111 114 115 116 117 119
82 81 79 76 76 77 79 77 75 73 77 80 79 82 82 80 83 88 90 91 91 92 94 96 99 100 100 101 103 104 106 109 111 115 116 120 123 125
72 75 77 76 74 76 76 77 79 79 81 80 84 86 88 87 87 87 92 98 101 102 103 104 103 104 105 106 108 109 112 114 116 119 121 124 125 128

GFSNE_250_spd_141.txt.gz
Wind_Speed
50 44 43 45 44 45 44 42 43 42 42 39 37 35 37 38 37 30 31 38 40 42 48 51 49 50 51 48 47 45 43 48 54 53 50 49 50 52
50 45 44 44 44 45 44 43 40 42 45 42 39 39 38 40 38 30 33 43 42 41 44 50 51 52 43 45 48 47 44 46 46 49 51 56 55 57
47 45 46 47 47 46 42 42 41 43 44 42 43 43 43 41 35 36 40 40 41 44 41 48 52 47 52 53 53 50 49 51 49 50 51 54 56 58
47 45 44 45 44 47 42 44 45 46 42 45 47 46 42 43 42 42 42 47 47 42 45 45 51 52 56 60 56 53 54 56 53 52 52 55 56 58
42 36 39 39 42 43 45 46 46 45 47 47 47 46 46 47 49 48 48 50 49 47 47 48 50 57 60 60 62 58 60 59 57 56 52 56 60 57
36 40 39 34 37 39 41 43 45 46 48 47 48 48 50 52 52 55 55 59 55 50 50 51 52 54 60 64 66 67 69 66 64 61 59 59 58 60
38 38 39 38 40 45 49 49 51 52 52 52 49 52 56 58 58 60 62 62 62 53 50 48 53 54 56 63 63 62 61 67 67 62 61 66 66 64
42 43 43 45 44 51 55 55 54 54 52 47 52 55 60 60 62 65 67 65 66 63 54 48 49 55 57 59 62 61 59 61 63 66 70 66 64 68
53 50 41 44 48 53 57 56 55 57 56 55 57 65 60 66 70 72 67 71 70 61 55 52 50 50 51 55 57 57 57 57 60 68 68 67 70 72
54 47 45 45 51 52 60 59 61 61 59 63 64 66 70 71 76 71 72 74 70 62 56 49 47 48 46 49 54 59 61 61 64 65 71 70 72 69
56 55 59 61 60 66 65 68 68 66 65 63 64 71 74 76 76 74 76 74 70 62 54 47 47 44 44 45 48 52 60 64 64 61 65 68 69 72
50 68 57 60 72 67 68 69 66 64 64 69 76 80 81 80 78 79 79 71 67 57 56 48 48 44 44 46 48 50 51 57 63 65 70 72 72 74
64 64 65 65 66 66 65 63 63 65 77 86 86 85 82 85 87 84 81 76 72 69 62 53 52 51 54 50 50 53 52 53 59 67 68 71 75 78
69 72 70 69 73 78 79 84 84 87 88 91 89 90 92 92 91 88 80 75 74 62 59 55 55 54 58 56 54 51 51 55 61 70 76 80 83 86
69 72 77 79 83 86 87 86 88 89 91 92 92 95 95 98 92 84 82 78 77 71 63 59 59 56 57 60 63 59 61 59 63 71 76 80 82 85
83 85 87 87 88 87 88 93 93 96 96 100 101 100 101 96 92 85 83 83 81 76 66 59 61 63 60 63 65 68 68 71 73 75 79 82 85 89
85 86 90 93 93 96 97 99 100 100 101 102 104 103 95 93 85 87 86 85 80 75 69 62 59 67 68 65 68 71 74 77 81 83 86 89 90 91
88 92 95 96 97 99 102 104 104 105 106 106 102 100 92 89 89 91 90 83 78 73 69 63 64 65 68 71 73 76 79 79 79 81 84 86 89 92
98 94 96 98 101 106 105 103 105 103 102 100 96 92 92 95 96 94 92 85 82 79 72 69 70 72 72 74 76 79 83 87 91 92 93 94 96 98
99 103 103 103 102 104 103 101 101 97 97 96 96 98 97 96 96 94 90 85 85 83 81 74 73 74 77 80 82 82 84 88 90 92 94 97 98 102
92 97 100 102 101 98 95 95 95 96 95 94 94 95 96 98 98 98 92 91 83 83 83 83 80 79 78 79 82 86 90 92 93 96 98 100 102 103
83 83 83 85 87 90 91 92 96 96 97 97 98 99 102 102 101 97 95 90 85 83 85 87 84 84 85 86 87 89 91 93 97 100 102 104 106 107
85 86 85 87 88 87 87 89 92 93 94 97 98 101 97 97 98 86 79 77 75 76 75 78 82 83 87 89 93 95 96 96 95 98 102 105 107 111

GFSNE_250_spd_147.txt.gz
Wind_Speed
51 42 38 43 47 58 57 48 50 48 46 44 43 42 41 40 35 35 35 33 36 36 37 33 35 35 34 36 45 45 44 43 42 44 47 46 45 45
64 60 45 46 54 57 63 53 52 51 52 49 45 44 41 38 36 34 32 36 40 37 39 37 34 36 38 37 41 49 45 46 47 47 47 51 52 52
80 75 67 63 62 57 63 60 54 54 53 52 50 47 44 37 35 33 34 37 40 40 43 40 38 40 35 36 43 50 55 50 47 48 51 51 55 57
68 73 81 72 61 62 63 64 58 56 55 53 53 49 46 43 38 36 38 41 43 44 45 39 40 42 40 42 47 53 53 57 52 50 49 53 56 56
68 73 74 62 56 56 63 65 60 57 57 55 54 49 45 44 42 43 40 40 44 42 41 39 42 43 41 43 46 55 57 58 60 54 53 53 56 57
70 74 67 60 55 53 60 63 61 57 56 57 55 50 45 46 46 45 38 38 38 39 41 41 44 45 46 47 53 57 61 61 60 66 57 55 55 58
63 58 60 57 53 52 52 61 61 60 60 60 54 51 42 45 44 41 41 44 46 48 47 47 50 52 50 52 59 59 66 65 67 69 68 55 56 57
64 66 64 63 61 48 48 58 63 59 61 60 58 52 51 49 42 45 45 44 46 51 50 51 53 53 55 58 63 64 70 69 70 71 74 60 53 56
52 55 58 53 55 45 48 56 60 59 57 59 58 50 49 49 48 55 52 52 54 56 56 57 55 56 58 61 67 69 74 75 77 71 72 69 58 57
44 46 49 55 54 50 53 56 61 61 58 59 59 54 54 53 52 54 58 59 57 58 61 62 63 63 63 65 71 72 76 78 80 78 75 72 62 60
57 50 55 59 57 53 54 60 62 58 56 58 57 55 59 53 51 61 69 64 62 63 66 63 66 67 70 73 73 78 81 84 86 84 83 83 68 62
54 51 46 46 58 57 58 60 61 62 62 64 61 58 61 60 62 70 74 70 66 66 63 62 67 69 73 76 79 85 90 90 90 90 88 86 74 66
57 55 56 60 62 65 64 64 63 64 67 65 61 60 63 66 67 69 70 70 64 65 65 67 73 78 80 83 87 92 93 94 94 94 93 89 80 67
58 55 53 62 68 68 71 71 67 63 66 65 64 64 67 70 69 71 70 69 65 66 70 75 80 82 84 89 94 95 100 101 99 99 94 92 85 62
73 71 73 71 74 74 74 75 73 69 62 63 69 71 75 76 78 78 74 67 69 74 78 82 87 90 92 95 98 100 102 103 102 102 99 97 86 73
82 79 72 76 81 78 77 73 63 61 63 66 67 68 67 70 66 69 74 74 78 82 88 88 93 94 99 101 102 103 106 105 105 102 103 96 92 85
82 76 76 79 79 75 73 68 72 66 66 68 70 72 71 72 76 81 83 83 86 93 93 98 99 102 103 106 104 109 110 110 108 107 103 98 93 86
77 76 76 77 77 77 74 75 74 77 75 73 72 75 80 82 86 89 87 92 95 98 98 100 104 106 107 105 110 115 112 114 112 108 101 101 92 88
72 72 76 78 76 78 77 79 80 82 79 80 82 83 85 86 88 91 95 97 101 105 108 108 109 109 109 112 116 115 114 110 110 106 102 92 91 90
73 75 76 76 77 79 80 82 80 79 80 82 84 89 91 95 97 98 101 101 103 103 104 104 107 110 116 118 120 118 111 109 108 99 98 93 85 83
80 82 81 81 83 81 82 84 86 88 90 92 93 95 97 100 103 103 105 104 105 108 111 116 116 116 118 118 121 113 112 108 102 104 95 90 81 77
84 83 83 84 84 86 87 89 92 92 95 95 96 99 101 103 105 107 110 113 116 120 121 121 121 117 124 124 117 115 115 110 108 104 101 101 93 86
91 94 94 93 95 96 96 97 100 101 101 101 102 105 106 109 110 112 117 118 118 120 117 122 126 123 117 116 115 114 113 110 105 104 99 93 86 83

GFSNE_250_spd_153.txt.gz
Wind_Speed
72 65 81 64 55 54 42 35 35 31 36 26 36 45 47 51 52 48 46 43 43 43 42 39 36 36 38 38 37 33 33 34 33 35 38 36 39 40
83 80 81 78 62 60 52 41 36 39 37 24 23 25 36 45 51 53 46 44 43 42 42 39 38 35 39 39 38 37 35 36 35 35 37 41 47 45
90 83 79 91 77 72 58 47 44 44 35 26 22 26 31 37 42 53 50 46 45 43 42 42 40 37 39 41 39 38 39 37 37 39 42 42 44 47
88 82 86 93 85 75 70 62 48 46 37 38 32 38 36 38 41 50 54 49 47 44 44 43 42 39 40 45 42 40 41 38 37 43 43 46 45 49
99 97 96 96 82 76 65 59 48 46 45 42 30 41 40 35 38 44 52 54 50 46 46 45 44 43 42 44 44 44 42 44 40 40 44 47 49 52
105 106 103 93 81 65 61 56 48 47 49 42 39 42 40 41 37 41 50 52 52 52 50 48 47 46 47 49 48 46 49 48 47 50 49 50 54 53
103 103 97 84 77 66 62 54 45 46 43 45 43 45 41 39 38 36 42 50 51 51 52 52 49 47 49 54 52 53 53 52 53 54 49 53 55 56
106 100 96 92 69 54 53 48 42 42 44 48 42 37 41 41 42 37 39 43 43 49 54 53 52 49 51 55 53 53 54 57 59 59 59 58 59 59
101 97 99 71 59 51 48 45 39 43 44 47 38 42 41 45 39 34 38 43 44 47 50 51 52 54 55 56 59 61 59 60 61 63 61 65 68 66
101 94 93 70 50 49 43 46 48 49 42 47 38 44 45 47 42 38 39 46 48 52 45 56 46 53 59 57 62 64 65 65 66 64 65 69 74 72
96 90 67 74 62 52 48 56 57 50 46 43 45 47 46 44 43 43 44 47 53 56 56 59 57 60 61 61 62 66 67 66 64 65 70 75 73 74
93 92 85 66 61 59 41 44 50 46 49 49 50 44 48 53 52 52 52 51 54 57 60 59 63 66 66 67 67 69 68 67 66 70 76 77 79 74
77 72 70 63 58 55 46 43 44 58 58 53 46 48 59 54 47 47 67 60 67 64 66 66 68 67 68 71 74 74 71 68 72 75 75 78 79 82
77 80 73 73 67 65 46 59 68 63 68 61 62 55 51 57 49 52 54 52 60 58 66 71 74 73 70 72 76 76 77 80 78 78 81 83 82 85
85 83 82 80 83 76 74 67 71 71 74 66 64 63 67 61 67 68 69 70 72 79 83 78 73 74 76 75 74 75 74 76 79 82 85 86 86 86
90 91 89 86 90 83 80 78 79 77 71 68 75 67 67 67 67 73 74 78 75 78 77 78 79 81 78 75 73 73 78 80 81 85 82 82 84 88
92 92 94 93 97 97 78 78 82 74 73 72 73 76 73 72 74 75 74 67 70 72 69 74 79 86 85 82 79 80 81 84 84 81 82 84 89 93
98 100 102 101 97 96 89 81 77 69 75 73 74 72 71 73 74 73 76 79 78 75 77 81 83 86 89 90 86 81 74 78 80 84 87 91 94 96
101 107 100 99 103 101 92 95 87 83 83 80 82 81 81 80 83 85 87 87 89 86 88 87 90 92 89 86 83 83 82 85 88 90 94 96 98 100
107 106 105 103 106 109 105 106 100 98 98 96 92 91 93 95 96 102 98 98 97 96 94 100 106 102 96 96 90 92 91 90 92 94 96 98 99 103
110 107 109 111 110 112 117 116 117 107 107 104 103 104 109 106 104 104 101 105 106 108 108 114 112 101 97 94 91 87 90 89 94 96 98 101 104 107
112 113 112 111 112 117 114 114 115 111 112 116 116 116 111 115 112 111 113 111 113 113 115 119 103 94 95 92 90 93 91 94 97 99 101 104 109 113
114 115 114 114 118 111 114 119 118 110 111 111 109 106 106 113 108 108 107 108 108 113 116 108 101 97 93 95 95 96 98 99 101 106 107 111 110 116

GFSNE_250_spd_156.txt.gz
Wind_Speed
80 89 79 74 73 67 70 60 48 38 36 37 32 25 33 38 47 48 46 46 48 46 44 43 41 38 37 36 35 32 35 35 33 30 31 30 30 30
79 95 90 84 75 77 77 62 48 44 40 34 29 20 22 30 40 47 47 45 47 47 47 45 41 39 37 36 35 33 35 36 35 32 31 33 33 35
79 98 96 98 80 76 77 65 50 41 39 34 33 23 26 27 29 30 36 45 46 47 47 44 42 41 39 36 35 33 34 35 37 37 34 34 33 33
77 102 104 89 83 79 72 64 57 52 47 42 41 27 29 21 18 21 23 31 44 46 44 46 44 43 41 38 34 34 34 37 39 40 38 38 37 39
78 104 105 101 93 88 78 77 68 61 55 46 38 31 30 24 18 18 22 25 29 37 47 51 48 46 43 40 37 37 37 39 40 42 45 44 43 43
80 105 103 103 90 89 86 81 83 73 60 58 44 41 32 31 22 25 27 27 28 34 42 48 52 50 48 46 42 39 40 41 42 45 48 47 47 48
85 108 102 100 98 97 92 93 83 75 70 66 54 47 44 33 32 30 30 29 30 32 38 47 52 47 47 48 49 47 46 44 45 47 49 51 52 51
88 115 107 105 105 101 98 100 87 80 77 66 61 50 45 43 40 35 36 33 28 31 36 38 48 48 47 44 44 46 49 50 48 48 52 54 55 58
89 115 111 109 103 103 108 101 87 85 85 68 62 49 45 46 44 38 35 35 33 36 37 34 42 45 43 41 42 40 48 49 47 49 55 59 60 62
90 115 112 113 110 107 108 98 92 85 72 66 59 54 49 48 43 40 36 33 31 35 38 35 32 34 37 33 43 37 45 52 54 58 61 61 62 65
87 109 115 110 107 102 99 86 78 67 59 56 54 51 50 47 42 40 36 34 37 37 36 33 29 30 40 41 49 54 56 59 64 63 65 66 68 67
84 105 115 116 109 100 91 81 59 57 56 55 52 48 44 38 37 37 40 39 39 38 40 40 40 44 47 47 53 58 59 57 62 66 65 65 67 71
71 90 118 112 103 96 76 59 58 61 60 55 53 46 45 42 43 42 44 40 36 39 40 45 49 52 54 56 52 49 56 65 60 61 64 69 71 73
56 73 101 93 94 87 81 67 58 53 48 49 54 51 53 51 53 46 45 46 57 48 45 43 61 55 54 61 60 61 66 65 61 62 63 71 79 79
51 60 73 83 85 81 82 75 63 55 52 54 54 59 59 59 56 55 52 47 47 54 52 49 51 62 63 62 65 66 59 57 62 67 69 71 73 77
56 62 71 75 83 84 81 89 62 62 60 63 64 59 62 61 59 60 63 66 55 64 60 68 72 69 67 67 70 68 61 59 64 70 76 74 79 83
65 68 73 83 85 80 82 79 83 74 67 71 66 67 71 71 64 66 68 71 74 71 70 77 75 71 72 76 73 71 72 76 75 77 79 82 87 88
73 75 79 84 85 86 89 86 84 85 83 73 76 73 65 75 75 73 78 83 80 77 79 77 79 75 73 78 84 86 84 85 86 86 87 91 91 90
81 80 83 84 83 85 86 92 95 86 90 82 82 78 80 80 83 81 80 77 76 78 79 77 82 85 83 82 83 85 89 89 91 92 92 96 97 98
85 85 86 87 88 88 91 92 95 95 96 94 90 89 87 86 85 83 88 85 83 80 82 79 79 82 84 89 90 90 92 93 96 96 97 100 102 105
88 93 94 92 88 92 95 98 99 99 103 104 105 105 102 95 96 94 95 92 87 85 87 86 87 89 95 96 95 94 98 105 100 96 95 101 107 107
87 96 98 97 97 98 99 101 103 106 109 113 112 109 109 103 99 97 90 88 89 91 92 90 93 99 103 106 101 106 104 102 100 100 100 104 108 106
96 90 100 107 105 106 106 108 107 111 112 111 109 113 113 113 109 104 108 99 102 103 100 98 102 108 114 110 110 107 104 105 105 108 108 111 113 104

GFSNE_250_spd_159.txt.gz
Wind_Speed
53 59 70 85 91 91 84 73 58 64 57 56 54 53 53 55 53 52 52 51 50 52 51 45 44 42 39 38 35 33 33 32 31 31 31 32 32 29
53 57 68 84 92 96 88 76 64 58 59 56 52 49 47 39 37 38 41 46 49 52 50 47 46 44 41 38 37 34 33 33 32 32 32 30 32 34
51 55 65 79 90 101 92 81 64 65 59 55 51 48 44 41 35 36 40 40 45 52 52 48 49 47 43 41 39 35 33 34 32 32 32 30 34 36
48 52 62 69 85 103 91 87 79 70 69 64 54 55 49 47 35 31 36 38 43 48 51 49 48 43 40 42 41 40 38 36 31 32 32 30 34 38
40 47 58 64 81 104 95 89 93 89 83 70 61 59 46 42 35 34 35 36 33 34 40 39 39 43 45 43 44 44 40 36 34 32 30 33 35 36
38 40 53 62 80 106 100 87 96 92 86 75 65 61 50 44 36 34 37 35 32 33 34 33 37 40 43 46 47 42 44 42 40 37 37 39 37 38
37 38 46 59 80 103 106 98 101 96 93 82 70 64 57 47 37 34 35 36 28 28 29 31 32 34 36 39 43 43 45 44 42 42 42 41 43 43
38 39 45 58 84 106 105 102 104 98 84 74 70 68 58 51 48 43 37 36 30 35 31 34 31 30 33 33 38 43 42 42 42 43 45 44 44 41
38 40 47 66 88 111 104 104 105 96 88 83 80 75 67 58 54 50 45 40 37 35 30 30 34 31 30 30 32 35 37 39 41 43 46 45 40 43
40 41 51 73 96 116 111 112 105 102 96 91 87 80 73 71 63 55 56 41 36 32 31 30 35 35 31 27 34 38 37 35 34 38 41 45 43 43
39 44 53 77 105 119 117 112 109 103 100 92 88 82 73 73 65 55 53 47 36 39 36 36 37 41 36 28 28 32 32 36 33 45 41 45 42 43
41 47 55 76 99 117 115 108 108 105 105 98 93 86 80 72 68 57 59 59 49 46 40 40 42 44 44 34 33 43 45 43 45 45 40 36 41 42
38 48 56 74 94 118 121 115 110 108 105 103 97 87 78 78 72 58 59 56 53 48 51 43 44 47 48 43 39 44 47 52 52 55 49 48 46 42
39 47 54 67 85 118 120 114 116 113 109 103 95 78 74 65 69 60 66 63 58 51 48 46 46 47 50 43 41 46 47 57 53 53 52 53 51 53
38 41 50 60 80 103 125 120 109 106 109 102 82 78 78 73 62 65 66 66 56 54 51 52 54 54 59 54 49 56 59 57 63 58 58 58 62 60
41 38 43 53 67 86 115 119 120 118 106 94 88 70 74 71 71 67 63 61 58 56 55 55 56 61 64 69 59 57 61 65 67 69 62 62 67 70
41 37 34 42 51 71 85 114 109 103 100 89 77 66 67 74 73 72 67 62 63 65 60 63 63 67 67 63 71 66 66 67 70 73 72 71 73 77
44 39 38 42 48 57 71 107 107 103 94 78 71 82 85 76 70 71 72 63 69 72 71 73 70 71 75 75 69 68 69 71 74 75 74 74 78 82
51 48 43 43 52 59 71 82 102 102 90 82 73 78 73 76 78 80 79 79 70 76 80 81 77 80 82 82 79 74 75 77 80 81 82 84 88 86
61 58 54 54 52 64 77 84 91 97 103 100 93 91 85 86 84 84 87 75 72 77 83 84 82 84 79 81 81 82 82 83 84 86 83 85 86 83
67 69 66 66 68 71 78 87 93 94 97 95 96 99 93 93 89 86 83 81 81 84 91 94 92 89 86 83 80 83 86 85 88 88 85 85 89 91
71 76 76 77 78 81 87 94 97 100 98 97 96 97 100 100 100 93 89 89 89 91 96 98 96 92 89 88 86 89 90 92 94 92 89 92 96 96
72 78 84 86 87 87 95 98 102 103 102 101 99 101 105 106 107 101 99 96 97 99 100 99 95 97 89 89 92 96 98 95 95 96 95 95 100 107

GFSNE_250_spd_162.txt.gz
Wind_Speed
52 45 54 51 56 61 74 90 94 89 83 80 81 85 85 81 76 72 68 65 64 62 56 56 53 52 50 47 45 46 45 42 37 35 34 32 31 31
52 44 51 50 54 61 73 88 99 96 88 83 80 80 84 84 78 73 68 62 69 69 63 59 54 51 53 51 49 49 46 41 38 36 34 33 32 33
52 43 51 49 54 64 73 87 102 100 90 88 79 76 78 80 78 71 66 62 62 62 63 63 56 53 53 53 51 48 44 42 39 37 35 35 34 32
52 46 50 51 49 59 71 85 101 106 95 94 79 55 50 71 71 68 64 58 56 57 55 56 56 52 55 51 49 47 44 43 43 39 37 33 34 32
51 48 51 50 52 56 66 83 98 106 106 97 83 80 82 76 67 65 59 57 56 52 50 54 56 55 56 55 53 46 45 44 42 41 40 36 35 31
52 50 50 54 53 55 65 79 88 96 104 98 87 83 72 65 65 65 59 57 54 48 45 51 56 55 53 55 52 48 48 46 45 44 42 39 40 38
54 50 48 52 50 50 57 68 72 87 102 102 91 86 76 76 73 67 65 60 56 53 45 45 49 53 52 50 49 47 45 46 48 50 49 43 42 42
55 51 47 50 49 48 51 59 67 87 107 100 98 86 80 79 77 72 68 62 62 47 45 45 47 48 48 46 44 42 42 45 48 50 49 47 45 40
54 53 49 49 50 46 50 58 66 85 113 103 98 89 89 76 71 69 64 62 60 56 55 53 48 42 41 39 39 39 38 39 38 43 44 42 41 42
53 53 49 49 49 46 49 56 68 89 107 107 102 103 86 81 75 73 68 68 61 53 51 46 43 43 38 37 35 33 32 34 36 34 35 37 40 40
53 53 51 52 50 48 50 56 69 91 110 108 108 95 97 85 86 79 80 71 59 51 50 43 44 40 39 36 38 39 37 34 34 37 35 34 36 41
51 53 54 53 50 49 51 60 69 102 113 113 106 104 98 94 89 85 79 72 66 60 47 47 43 42 41 39 39 42 44 36 35 35 39 40 44 46
51 54 57 55 53 51 54 65 77 104 116 111 107 107 101 97 92 90 82 76 71 62 56 51 48 42 37 40 42 45 46 42 41 42 46 48 50 53
45 50 58 56 54 52 56 70 85 110 118 119 115 112 102 94 98 91 83 76 70 65 63 60 55 51 47 43 42 45 47 51 49 46 48 53 57 56
45 49 56 56 55 53 56 75 87 113 119 117 117 115 101 98 98 92 82 75 70 71 66 63 58 59 55 53 49 54 57 55 53 51 53 56 60 59
47 50 55 55 55 54 55 75 86 114 118 117 111 110 106 102 100 93 85 81 74 67 66 70 66 64 62 64 64 65 62 60 60 57 60 62 68 71
49 51 54 55 55 56 59 71 82 113 121 118 112 112 110 106 100 98 94 89 82 74 69 65 69 65 66 68 66 67 68 68 69 67 68 68 72 71
49 52 52 51 53 54 58 63 83 100 122 120 114 111 112 108 102 101 95 88 83 80 68 71 69 72 73 68 68 67 66 69 71 73 72 73 73 76
49 51 49 50 46 49 53 60 68 77 115 122 125 115 114 112 107 105 98 86 86 80 75 80 75 74 75 72 68 68 71 73 77 79 78 79 76 76
51 52 52 49 48 44 47 53 62 78 105 123 124 121 116 113 113 108 103 90 87 85 78 78 76 75 73 74 73 73 81 79 82 84 84 84 84 85
53 53 54 52 46 44 42 47 56 70 79 111 123 122 117 108 108 103 103 101 92 88 89 81 83 82 80 78 77 81 85 82 86 91 92 93 89 87
55 57 57 57 51 48 46 48 55 61 74 87 117 119 118 113 113 104 107 102 89 87 82 85 86 89 87 88 88 87 88 92 96 99 97 97 94 93
56 59 61 62 57 54 51 50 54 64 67 75 84 112 117 117 114 108 101 103 93 93 94 93 95 96 97 97 93 95 93 90 96 99 102 101 100 99

GFSNE_250_spd_165.txt.gz
Wind_Speed
77 73 70 65 61 51 49 48 47 59 69 78 82 81 79 79 85 83 87 82 82 81 84 79 78 63 59 55 52 48 46 46 43 45 48 45 42 38
77 74 71 65 60 56 48 52 49 57 68 79 81 85 82 83 76 79 86 85 81 77 74 74 63 65 63 59 53 52 48 49 47 48 47 47 45 40
77 74 70 66 60 57 51 53 53 56 68 82 86 89 88 78 71 53 71 85 86 78 73 69 64 61 58 63 57 55 56 54 52 50 50 47 44 40
76 74 70 66 61 57 53 56 57 60 68 82 85 90 92 85 74 77 74 89 88 85 76 73 66 63 61 62 57 61 62 57 55 54 50 47 45 41
75 72 70 67 62 58 55 56 60 62 68 79 92 93 93 92 82 61 59 67 80 88 86 77 70 67 66 66 62 61 58 58 58 55 52 48 45 41
72 70 70 68 64 59 56 57 62 60 69 77 92 94 98 96 84 72 66 74 80 86 87 77 70 67 66 69 70 65 61 60 59 56 54 48 43 41
71 73 72 67 64 60 57 59 62 64 65 76 89 100 99 100 84 89 86 77 85 80 84 77 71 68 64 64 68 67 65 62 61 57 56 52 48 47
71 73 73 69 66 62 59 58 62 66 66 74 82 102 101 105 96 89 79 75 69 72 81 77 72 67 66 62 65 72 68 65 64 62 60 55 53 53
74 73 75 71 67 62 61 59 64 65 66 72 80 89 97 102 92 88 78 58 61 67 79 78 73 69 64 63 63 70 69 66 64 62 60 54 53 54
74 75 73 70 67 62 59 60 63 64 65 70 71 78 81 99 93 94 80 71 75 75 80 76 72 68 65 61 59 65 66 63 58 56 52 49 47 45
70 68 68 68 68 62 57 59 63 65 66 68 67 70 76 96 103 99 89 83 86 83 81 78 72 69 64 59 58 56 54 56 53 49 46 42 43 45
63 64 63 65 65 60 55 58 65 63 67 67 69 70 83 103 112 106 95 91 91 94 87 80 73 69 64 57 52 52 52 49 47 44 42 39 40 39
57 54 52 54 57 56 54 57 65 62 67 67 70 74 85 110 123 109 104 97 87 86 82 78 76 68 63 56 55 54 52 50 48 47 47 43 37 34
50 49 49 49 49 47 54 57 61 61 68 66 69 75 86 106 121 113 105 98 90 87 82 80 76 71 66 57 55 58 55 53 49 50 47 45 41 39
45 46 46 47 48 48 52 55 55 59 68 67 70 77 86 103 117 115 110 96 90 88 87 80 78 71 64 59 57 54 52 53 50 47 46 48 47 47
40 43 43 43 47 51 53 53 54 60 67 66 72 79 91 110 118 115 101 97 97 89 89 87 84 76 71 65 61 59 57 53 55 55 56 54 54 52
35 37 41 42 47 50 51 51 53 59 64 66 74 80 92 113 116 113 107 103 95 91 93 89 84 78 75 72 66 66 62 58 59 58 56 57 58 60
32 34 38 43 46 47 49 50 53 58 61 66 70 78 93 111 113 113 108 105 100 92 87 86 88 81 76 74 70 66 65 63 61 59 59 61 65 66
31 32 35 41 43 46 49 52 52 57 59 62 68 76 96 110 117 114 114 109 103 97 92 96 87 86 80 76 72 68 68 68 69 67 66 65 69 73
30 32 36 41 44 47 49 51 54 57 59 60 69 79 105 116 119 119 119 115 107 100 95 94 92 89 85 79 76 73 69 78 74 74 74 72 72 76
29 32 37 43 45 48 51 53 53 56 59 59 69 81 108 118 118 120 117 112 111 103 96 96 93 92 89 87 83 78 80 80 77 80 80 80 81 79
30 33 39 43 47 51 53 52 52 53 57 60 64 77 103 116 119 118 117 115 111 108 100 102 101 96 91 89 81 79 79 79 80 83 84 84 87 87
31 34 40 45 48 52 52 52 51 53 54 60 64 76 87 120 113 116 116 114 109 110 104 105 104 98 96 91 91 85 84 84 84 87 85 87 87 84

GFSNE_250_spd_168.txt.gz
Wind_Speed
97 94 88 85 83 81 77 73 65 56 50 52 51 59 71 85 92 89 71 71 69 73 77 78 86 90 87 68 64 63 60 61 56 49 51 51 46 42
102 98 95 92 86 81 80 75 68 57 45 52 55 59 73 85 98 94 91 87 79 67 67 76 83 81 83 79 74 68 64 62 53 54 51 52 48 42
105 102 98 95 93 89 82 76 69 59 46 49 59 58 70 84 96 102 97 90 78 77 68 75 73 71 65 80 71 64 63 60 59 56 53 52 49 44
106 105 100 97 93 87 79 75 68 64 51 48 58 58 69 83 92 102 97 93 82 68 73 75 74 74 79 76 81 77 75 70 64 57 57 53 53 48
105 102 97 93 90 83 77 73 70 66 56 50 53 62 66 79 93 101 103 92 93 87 70 66 77 75 76 74 76 71 64 66 68 64 62 57 55 51
96 88 84 82 80 78 73 72 70 67 60 53 57 63 65 77 88 98 104 101 94 86 73 81 75 81 77 78 75 72 64 63 60 65 65 62 57 54
84 79 79 78 77 74 70 71 70 68 63 57 60 63 68 70 81 95 102 102 97 90 89 76 70 76 81 78 77 73 67 65 62 60 60 57 58 54
81 79 78 77 73 69 70 70 72 70 65 59 62 63 71 71 78 89 103 103 96 88 93 87 62 69 85 87 80 77 72 68 67 67 63 64 63 59
78 77 77 76 74 73 71 71 72 71 67 64 64 66 70 77 77 86 98 106 99 98 89 83 70 78 81 87 91 85 79 74 72 67 66 65 66 66
71 71 72 73 69 71 72 72 70 71 69 66 67 69 69 78 80 84 98 105 102 101 95 80 89 82 85 86 87 87 82 75 69 65 61 64 69 71
66 66 66 67 69 67 66 67 65 64 61 66 67 69 71 77 81 80 93 106 108 112 95 96 99 96 80 85 90 88 83 77 70 65 60 60 69 71
58 60 60 61 62 62 61 60 61 63 59 62 67 69 72 78 82 77 88 103 115 119 110 103 88 82 80 79 87 87 81 75 69 61 61 61 66 71
53 53 51 53 55 55 53 52 56 59 61 63 68 70 72 77 79 78 82 98 113 115 113 106 92 77 78 79 82 83 80 74 63 59 61 58 60 69
47 48 48 46 48 49 52 53 52 54 58 59 64 66 70 73 74 75 78 82 96 101 106 111 95 83 84 81 83 80 77 70 61 61 60 58 56 58
42 42 42 42 42 44 47 51 52 53 56 57 60 64 66 69 70 68 69 74 94 106 113 106 108 96 88 73 74 76 72 66 65 59 58 56 56 54
38 38 38 39 40 41 43 48 51 53 53 55 57 60 64 67 67 66 67 81 104 109 113 108 101 99 91 78 80 77 72 69 65 60 58 55 54 53
35 35 34 34 36 38 39 41 45 50 55 55 54 55 59 62 64 65 72 83 108 120 123 113 99 95 87 85 86 80 74 69 65 62 58 57 55 55
33 31 30 30 32 34 35 37 40 46 50 53 53 55 58 60 64 68 77 88 116 125 120 114 99 96 94 90 83 79 75 72 71 69 63 58 59 60
30 29 27 27 29 30 33 35 37 42 45 47 52 55 58 60 65 69 77 94 114 119 119 107 110 104 95 85 78 83 79 76 74 71 68 66 65 65
27 26 24 25 26 28 31 33 34 38 41 45 51 52 54 58 65 70 76 91 105 124 121 116 111 101 100 88 84 85 82 82 79 76 74 71 72 69
24 24 24 24 25 27 30 33 36 40 42 46 50 50 53 58 63 69 73 83 98 122 122 115 114 103 107 92 90 88 88 88 84 82 78 75 73 69
24 23 24 25 26 27 30 35 38 41 44 45 48 48 51 54 59 64 70 82 101 127 122 120 117 116 99 89 90 90 92 93 90 86 80 75 77 75
23 23 25 26 27 28 31 35 38 41 44 46 46 49 50 51 54 61 70 79 98 129 131 123 118 113 100 94 93 97 98 94 93 89 84 83 84 81